This is the latest recevied weather packets stored in our database for station/object S51UL-6. If no packets are shown the sender has not sent any weather packets the latest 10 day(s).
| Time | Temp. | Humidity | Pressure | Rain* | Wind** | Luminosity | Snow |
|---|---|---|---|---|---|---|---|
| 1787501338 | 24.44° C | 52% | 1020.9 hPa | 0 mm | - | - | - |
| 1787501039 | 24.44° C | 53% | 1020.9 hPa | 0 mm | - | - | - |
| 1787500738 | 24.44° C | 53% | 1020.9 hPa | 0 mm | - | - | - |
| 1787500438 | 24.44° C | 52% | 1021 hPa | 0 mm | - | - | - |
| 1787500138 | 25° C | 52% | 1021 hPa | 0 mm | - | - | - |
| 1787499840 | 25° C | 52% | 1020.9 hPa | 0 mm | - | - | - |
| 1787499238 | 25.56° C | 51% | 1021.1 hPa | 0 mm | - | - | - |
| 1787498638 | 25.56° C | 52% | 1021.1 hPa | 0 mm | - | - | - |
| 1787498338 | 25.56° C | 51% | 1021.2 hPa | 0 mm | - | - | - |
| 1787498040 | 26.11° C | 51% | 1021 hPa | 0 mm | - | - | - |
| 1787497739 | 26.11° C | 50% | 1021.1 hPa | 0 mm | - | - | - |
| 1787497138 | 26.67° C | 49% | 1021.1 hPa | 0 mm | - | - | - |
| 1787496539 | 27.78° C | 47% | 1021.2 hPa | 0 mm | - | - | - |
| 1787496240 | 27.78° C | 47% | 1021.2 hPa | 0 mm | - | - | - |
| 1787495939 | 28.33° C | 47% | 1021.2 hPa | 0 mm | - | - | - |
| 1787495639 | 28.33° C | 48% | 1021.2 hPa | 0 mm | - | - | - |
| 1787495370 | 28.33° C | 48% | 1021.1 hPa | 0 mm | - | - | - |
| 1787495339 | 28.33° C | 48% | 1021.1 hPa | 0 mm | - | - | - |
| 1787495043 | 28.33° C | 47% | 1021.2 hPa | 0 mm | - | - | - |
| 1787494739 | 28.33° C | 48% | 1021 hPa | 0 mm | - | - | - |
| 1787493547 | 28.33° C | 47% | 1021.2 hPa | 0 mm | - | - | - |
| 1787493241 | 28.89° C | 47% | 1021.2 hPa | 0 mm | - | - | - |
| 1787492339 | 28.89° C | 46% | 1021.3 hPa | 0 mm | - | - | - |
| 1787492040 | 28.89° C | 46% | 1021.2 hPa | 0 mm | - | - | - |
| 1787491440 | 29.44° C | 48% | 1021.4 hPa | 0 mm | - | - | - |
* Rain latest hour (hover to see other rain measurements)
** Current wind speed in m/s (hover to see current wind gust speed)